OneWeb SL0616

operational
NORAD ID: 55157 Int'l Des: 2023-004 Owner: ONEWEBN Country: UK Constellation: oneweb
LEOCIRCULARPOLARONEWEB_TYPE

Über OneWeb SL0616

Beschreibung wird geladen...

Live-Position

3D-Globus wird geladen...

Nächste Überflüge

Höhenverlauf

Altitude vs Time

uPlot chart will show altitude changes over time

Zweizeiliger Elementsatz

1 55157U 23004T 25304.72703713 .00000046 00000-0 84120-4 0 9995
2 55157 87.9128 51.2893 0002224 128.3502 231.7830 13.17650100137615
Epoch: 31. Okt. 2025 • Age: 24 hours

Aktueller Status

Höhe 1197.6 km
Geschwindigkeit 7.26 km/s
Subsatellitenpunkt 39.12°N, 79.68°W
Startdatum 10. Jan. 2023
Alter 2.8 years
Typ internet

Technische Details

Klassifizierung Payload
Masse 148.00 kg
Trockenmasse 140.00 kg
Gesamtmasse 148.00 kg
Länge 1.30 m
Durchmesser 1.00 m
Spannweite 5.00 m
Form Trapezoid+2 pan
Hersteller ONEWUS
Bus-Typ ARROW
Phasenstatus In Orbit
Besitzer/Staat ONEWEBN/UK

Große Konstellationen

Loading constellations...